Precipitable_Water
0.31 0.23 0.21 0.21 0.20 0.18 0.17 0.15 0.15 0.20 0.22 0.18 0.17 0.16 0.18 0.22 0.23 0.23 0.23 0.22 0.22 0.22 0.24 0.27 0.32 0.38 0.40 0.43 0.44 0.47 0.48 0.52 0.54 0.51 0.46 0.44 0.41 0.40 0.43 0.53 0.61 0.66 0.68 0.69
0.23 0.20 0.26 0.27 0.23 0.20 0.17 0.15 0.16 0.20 0.23 0.19 0.17 0.16 0.17 0.19 0.19 0.19 0.18 0.19 0.20 0.21 0.24 0.28 0.33 0.37 0.40 0.43 0.47 0.47 0.50 0.55 0.55 0.51 0.48 0.44 0.39 0.48 0.61 0.65 0.66 0.68 0.68 0.70
0.21 0.25 0.30 0.26 0.23 0.19 0.20 0.17 0.18 0.17 0.21 0.22 0.18 0.14 0.14 0.17 0.17 0.17 0.18 0.20 0.22 0.22 0.23 0.28 0.32 0.37 0.43 0.45 0.48 0.51 0.56 0.57 0.52 0.47 0.41 0.39 0.54 0.63 0.61 0.62 0.65 0.67 0.67 0.67
0.24 0.30 0.26 0.24 0.23 0.23 0.17 0.25 0.22 0.18 0.15 0.11 0.18 0.09 0.11 0.14 0.15 0.18 0.20 0.22 0.23 0.25 0.27 0.33 0.37 0.42 0.46 0.48 0.52 0.56 0.57 0.52 0.47 0.40 0.35 0.48 0.57 0.54 0.56 0.60 0.64 0.63 0.67 0.65
0.24 0.25 0.22 0.21 0.24 0.26 0.21 0.26 0.21 0.18 0.15 0.13 0.14 0.10 0.10 0.14 0.13 0.17 0.22 0.26 0.29 0.32 0.35 0.37 0.39 0.41 0.45 0.47 0.52 0.55 0.54 0.49 0.44 0.35 0.43 0.59 0.61 0.57 0.57 0.59 0.60 0.62 0.63 0.64
0.29 0.35 0.30 0.27 0.30 0.27 0.26 0.23 0.22 0.20 0.15 0.09 0.13 0.12 0.10 0.14 0.19 0.23 0.26 0.29 0.32 0.33 0.32 0.33 0.37 0.40 0.42 0.51 0.55 0.56 0.52 0.46 0.40 0.38 0.48 0.67 0.61 0.55 0.55 0.58 0.58 0.60 0.62 0.64
0.21 0.23 0.28 0.29 0.20 0.24 0.23 0.18 0.11 0.10 0.10 0.09 0.19 0.17 0.15 0.22 0.25 0.25 0.22 0.25 0.29 0.31 0.31 0.34 0.37 0.41 0.49 0.53 0.56 0.58 0.51 0.42 0.39 0.33 0.58 0.68 0.63 0.61 0.62 0.60 0.60 0.63 0.62 0.64
0.13 0.12 0.22 0.28 0.23 0.19 0.20 0.19 0.12 0.09 0.11 0.14 0.23 0.15 0.18 0.27 0.29 0.30 0.28 0.28 0.30 0.32 0.35 0.37 0.41 0.45 0.47 0.50 0.54 0.56 0.48 0.40 0.38 0.33 0.58 0.70 0.70 0.67 0.67 0.67 0.65 0.65 0.63 0.64
0.16 0.17 0.29 0.30 0.31 0.28 0.22 0.19 0.28 0.20 0.22 0.17 0.19 0.21 0.24 0.29 0.26 0.27 0.29 0.30 0.31 0.32 0.34 0.39 0.42 0.42 0.43 0.47 0.50 0.51 0.45 0.41 0.35 0.32 0.50 0.64 0.64 0.66 0.67 0.67 0.67 0.65 0.65 0.64
0.24 0.16 0.28 0.31 0.33 0.33 0.30 0.33 0.22 0.23 0.15 0.14 0.16 0.18 0.17 0.22 0.22 0.25 0.27 0.27 0.29 0.32 0.35 0.39 0.38 0.39 0.43 0.46 0.48 0.49 0.43 0.39 0.34 0.30 0.39 0.56 0.59 0.64 0.65 0.65 0.62 0.61 0.60 0.61
0.28 0.23 0.24 0.31 0.26 0.25 0.29 0.27 0.28 0.27 0.23 0.15 0.12 0.12 0.23 0.22 0.24 0.25 0.26 0.28 0.29 0.30 0.33 0.37 0.39 0.43 0.46 0.47 0.50 0.48 0.42 0.39 0.34 0.31 0.34 0.47 0.55 0.58 0.58 0.56 0.53 0.52 0.56 0.57
0.31 0.24 0.19 0.21 0.31 0.35 0.29 0.23 0.23 0.14 0.12 0.17 0.14 0.10 0.20 0.26 0.25 0.27 0.27 0.30 0.32 0.34 0.37 0.40 0.45 0.47 0.45 0.46 0.51 0.50 0.44 0.41 0.38 0.35 0.33 0.36 0.50 0.55 0.54 0.52 0.44 0.49 0.50 0.53
0.30 0.23 0.16 0.19 0.25 0.29 0.23 0.23 0.21 0.19 0.19 0.13 0.10 0.09 0.24 0.24 0.25 0.30 0.30 0.31 0.32 0.34 0.36 0.40 0.43 0.44 0.46 0.50 0.51 0.51 0.48 0.44 0.42 0.39 0.36 0.33 0.38 0.47 0.50 0.49 0.45 0.45 0.45 0.47
0.28 0.21 0.15 0.11 0.18 0.25 0.20 0.21 0.23 0.21 0.14 0.14 0.13 0.13 0.19 0.22 0.24 0.28 0.31 0.37 0.38 0.39 0.40 0.41 0.41 0.42 0.46 0.50 0.50 0.54 0.49 0.49 0.46 0.41 0.38 0.34 0.32 0.38 0.44 0.46 0.44 0.43 0.43 0.41
0.24 0.16 0.20 0.21 0.23 0.23 0.21 0.20 0.22 0.20 0.20 0.16 0.17 0.17 0.19 0.26 0.30 0.34 0.34 0.33 0.32 0.33 0.37 0.41 0.41 0.42 0.46 0.48 0.51 0.52 0.49 0.48 0.48 0.41 0.38 0.36 0.32 0.34 0.38 0.40 0.40 0.40 0.40 0.39
0.32 0.19 0.22 0.16 0.19 0.20 0.17 0.19 0.21 0.23 0.23 0.23 0.23 0.20 0.30 0.31 0.32 0.28 0.27 0.26 0.25 0.26 0.29 0.32 0.37 0.40 0.41 0.43 0.43 0.43 0.41 0.42 0.47 0.40 0.37 0.38 0.34 0.30 0.31 0.33 0.34 0.34 0.34 0.35
0.25 0.22 0.19 0.12 0.20 0.19 0.13 0.16 0.18 0.20 0.22 0.21 0.16 0.18 0.25 0.23 0.22 0.21 0.19 0.19 0.20 0.22 0.24 0.26 0.31 0.35 0.39 0.42 0.43 0.40 0.37 0.38 0.39 0.39 0.37 0.38 0.35 0.28 0.26 0.28 0.29 0.28 0.27 0.30
0.22 0.21 0.19 0.12 0.14 0.08 0.14 0.21 0.19 0.16 0.16 0.19 0.18 0.19 0.22 0.20 0.19 0.19 0.20 0.21 0.22 0.23 0.23 0.24 0.25 0.29 0.36 0.40 0.42 0.41 0.39 0.36 0.35 0.32 0.33 0.36 0.34 0.29 0.26 0.25 0.25 0.25 0.26 0.25
0.27 0.22 0.14 0.10 0.10 0.11 0.12 0.15 0.13 0.11 0.11 0.15 0.15 0.17 0.18 0.19 0.20 0.19 0.22 0.24 0.24 0.24 0.25 0.27 0.29 0.29 0.34 0.35 0.36 0.38 0.37 0.35 0.33 0.30 0.29 0.31 0.32 0.30 0.28 0.25 0.24 0.24 0.25 0.24
0.27 0.27 0.20 0.16 0.10 0.06 0.14 0.19 0.23 0.21 0.10 0.20 0.19 0.19 0.21 0.22 0.15 0.20 0.26 0.28 0.29 0.32 0.32 0.30 0.30 0.32 0.33 0.34 0.35 0.33 0.33 0.35 0.29 0.29 0.31 0.32 0.32 0.30 0.28 0.27 0.27 0.27 0.27 0.25
0.21 0.21 0.17 0.17 0.15 0.13 0.19 0.24 0.28 0.12 0.15 0.25 0.28 0.28 0.26 0.25 0.30 0.35 0.31 0.31 0.35 0.41 0.39 0.37 0.34 0.30 0.33 0.34 0.35 0.34 0.32 0.31 0.32 0.32 0.32 0.32 0.32 0.31 0.30 0.29 0.28 0.27 0.27 0.28
0.26 0.24 0.24 0.27 0.24 0.20 0.34 0.30 0.21 0.28 0.34 0.37 0.35 0.34 0.35 0.37 0.40 0.42 0.41 0.37 0.38 0.42 0.46 0.44 0.38 0.34 0.34 0.34 0.32 0.31 0.31 0.34 0.37 0.32 0.30 0.30 0.31 0.31 0.31 0.29 0.28 0.28 0.28 0.28
0.26 0.29 0.28 0.30 0.27 0.36 0.41 0.39 0.42 0.41 0.40 0.41 0.42 0.41 0.41 0.42 0.43 0.44 0.44 0.45 0.45 0.46 0.48 0.50 0.49 0.44 0.40 0.38 0.36 0.32 0.34 0.37 0.36 0.32 0.30 0.30 0.30 0.31 0.33 0.31 0.29 0.29 0.29 0.28
0.31 0.35 0.29 0.28 0.31 0.36 0.40 0.41 0.40 0.42 0.41 0.42 0.41 0.39 0.37 0.33 0.34 0.34 0.35 0.35 0.37 0.38 0.39 0.41 0.44 0.47 0.49 0.48 0.43 0.39 0.38 0.38 0.35 0.33 0.32 0.32 0.32 0.31 0.32 0.33 0.31 0.30 0.30 0.29
0.31 0.33 0.30 0.29 0.31 0.32 0.35 0.38 0.39 0.39 0.39 0.37 0.35 0.34 0.33 0.34 0.34 0.35 0.34 0.34 0.34 0.35 0.35 0.35 0.34 0.34 0.37 0.44 0.49 0.50 0.47 0.42 0.37 0.34 0.34 0.35 0.35 0.34 0.32 0.32 0.31 0.31 0.34 0.35
0.31 0.29 0.27 0.27 0.33 0.34 0.35 0.38 0.39 0.35 0.33 0.34 0.34 0.35 0.38 0.39 0.38 0.39 0.38 0.39 0.37 0.36 0.36 0.34 0.34 0.33 0.33 0.35 0.37 0.40 0.47 0.52 0.52 0.48 0.45 0.44 0.43 0.42 0.42 0.41 0.40 0.44 0.43 0.44
Wind_Speed
21 22 22 21 21 21 20 18 17 16 16 16 18 19 20 21 20 22 22 22 23 23 22 21 21 21 21 21 22 23 24 26 27 28 29 30 30 31 30 30 30 30 31 30
19 19 18 19 18 19 17 17 15 15 15 16 16 20 21 21 21 23 23 23 23 22 21 20 20 21 22 23 24 25 26 28 29 30 30 30 30 29 30 29 29 28 28 27
19 17 17 17 15 16 14 15 15 15 15 14 16 19 18 18 19 21 22 23 22 22 21 21 21 22 24 26 27 28 28 29 29 29 28 28 28 28 27 26 25 23 22 21
15 14 15 15 14 14 14 14 14 13 13 16 14 17 17 16 18 18 19 19 20 20 21 22 23 24 26 27 28 27 27 27 27 26 26 26 26 25 24 23 20 20 19 17
14 13 12 12 13 13 14 13 12 13 12 13 15 13 17 15 16 16 18 19 20 21 21 22 24 25 26 26 26 26 26 25 25 24 24 25 23 23 21 19 18 15 13 11
13 12 11 13 11 11 13 11 10 11 12 13 16 14 16 15 14 16 17 17 19 20 22 23 23 24 25 25 24 24 23 23 23 23 24 23 22 20 18 15 13 11 10 9
9 9 10 10 10 9 10 9 10 11 12 16 15 14 19 17 18 19 19 19 20 21 21 22 24 24 25 24 23 23 23 23 22 23 23 21 19 17 14 12 10 8 8 10
12 9 10 9 10 11 10 11 11 13 12 15 14 18 18 18 17 17 18 19 20 20 21 21 22 22 23 24 24 24 23 23 22 21 20 18 15 13 10 9 8 8 9 10
11 9 11 10 10 11 11 11 13 12 14 15 18 20 20 18 17 17 19 21 21 20 21 21 21 21 22 24 25 25 24 23 21 20 17 15 12 10 9 8 8 8 9 11
11 9 11 11 11 12 12 13 10 12 12 15 15 15 16 14 14 15 16 18 19 20 21 21 22 22 24 25 25 24 23 21 19 17 15 13 11 10 10 9 9 9 10 11
11 10 12 11 13 14 12 13 12 11 11 11 11 13 12 14 15 15 17 20 21 22 23 22 23 23 24 24 24 23 21 19 17 15 13 12 11 11 10 10 10 10 11 12
11 10 12 13 13 14 14 14 13 12 14 13 12 16 14 15 15 15 19 20 21 21 21 20 20 21 22 21 21 20 18 17 16 15 13 13 12 12 11 11 10 10 11 12
8 8 8 9 11 12 14 15 14 13 12 14 12 14 13 14 15 17 20 20 19 19 19 19 20 20 20 19 17 16 17 17 17 16 15 14 14 13 13 13 12 12 13 14
5 6 8 9 9 8 10 12 13 13 12 13 15 15 14 14 16 18 18 15 16 16 17 17 18 19 18 16 15 16 18 19 19 18 17 16 15 15 15 15 14 14 15 15
5 6 8 10 12 12 13 13 12 13 14 11 9 13 13 15 15 14 15 17 18 18 18 18 19 19 18 17 18 19 20 21 21 20 19 19 18 17 17 16 16 16 17 17
3 4 3 6 7 9 11 13 14 15 15 17 17 20 16 15 12 14 16 17 16 16 16 16 16 17 17 18 19 20 21 21 21 21 21 20 20 19 19 18 18 18 19 19
4 4 3 6 5 7 9 10 12 10 10 12 14 15 14 13 12 13 14 14 14 15 16 18 19 20 21 21 21 21 21 19 20 21 21 22 21 21 21 21 21 21 21 21
6 5 5 7 7 6 7 6 8 10 11 11 12 10 9 10 10 13 14 13 15 18 20 21 22 23 23 23 23 23 21 20 20 21 22 22 23 23 23 23 23 23 23 23
7 7 7 6 7 10 8 6 5 6 7 6 7 7 7 10 14 15 14 15 19 22 23 23 24 23 23 23 23 23 22 21 21 23 23 23 24 25 25 26 26 26 26 26
7 7 8 8 8 9 7 7 7 7 9 8 8 10 13 15 16 18 19 21 25 25 25 25 25 24 23 23 23 23 23 23 23 24 25 25 26 26 27 28 28 28 29 29
9 10 12 12 11 13 13 13 10 9 10 11 13 16 19 19 20 22 24 26 27 27 27 27 26 25 24 24 24 24 24 25 26 25 25 26 27 28 29 30 30 31 31 32
11 10 11 11 13 15 12 10 11 12 14 15 17 20 22 24 25 26 27 28 28 28 27 27 26 26 26 25 24 24 25 26 26 26 27 28 29 30 31 33 33 34 34 35
14 14 13 14 14 14 14 14 16 16 17 20 22 23 23 24 26 27 27 26 26 27 27 27 27 27 27 26 25 25 25 25 26 28 30 31 32 33 34 35 36 36 36 37
17 17 17 15 15 17 19 21 18 20 21 22 23 25 25 25 25 25 25 26 26 27 28 28 28 28 27 28 28 28 28 27 28 29 31 32 34 35 36 37 37 38 38 38
19 18 20 21 23 22 19 20 20 22 23 25 26 26 25 25 25 25 26 27 28 28 29 29 30 30 30 29 29 29 29 30 31 33 34 34 35 35 36 36 37 37 38 38
23 23 22 23 20 21 23 23 25 26 27 27 26 25 25 25 27 27 28 29 30 30 31 31 31 31 32 32 32 32 31 31 32 33 34 35 35 35 36 36 36 36 36 36
Wind_Direction
172 168 177 189 194 193 192 194 197 212 222 226 233 242 245 249 253 257 260 263 265 266 270 266 263 268 273 279 283 286 288 290 293 295 296 296 297 298 297 297 296 296 295 294
165 170 184 188 186 185 189 193 207 216 228 232 243 252 252 252 256 256 259 262 266 267 267 263 263 267 273 280 285 287 289 291 293 294 295 296 297 297 298 298 298 298 298 297
163 179 181 179 180 184 197 200 211 220 236 241 256 258 259 259 258 261 262 263 265 264 263 264 265 270 276 281 285 287 289 291 293 294 296 297 298 299 299 299 298 299 300 301
161 177 174 177 185 198 201 217 218 229 235 242 256 255 260 260 266 267 269 265 264 264 266 268 270 274 278 283 286 287 290 292 293 294 296 297 299 299 300 300 298 299 300 301
178 176 178 181 205 208 208 217 223 233 238 247 261 255 259 263 267 273 276 264 266 269 271 272 273 277 281 284 285 287 289 291 293 294 296 298 298 298 298 297 297 299 300 302
167 178 184 191 198 201 203 217 232 239 242 252 254 251 262 259 264 274 278 271 270 273 274 276 278 281 283 284 285 286 287 290 291 294 297 297 296 296 295 294 295 297 300 302
173 182 185 188 193 206 210 220 242 252 252 245 255 259 257 268 270 274 273 275 275 277 277 279 281 284 285 284 283 284 285 287 290 293 296 294 293 292 289 288 288 290 298 306
180 199 196 209 204 212 220 222 227 238 246 256 262 258 265 270 274 278 275 277 279 279 279 281 283 284 285 285 283 282 283 285 288 291 293 291 288 285 279 276 277 285 297 307
190 205 212 212 221 223 237 244 246 250 264 268 264 272 274 272 273 279 283 281 281 280 280 281 284 287 289 287 282 279 280 280 284 286 288 285 279 272 268 267 272 285 296 307
203 206 222 229 233 240 241 242 255 263 258 263 267 269 264 270 273 288 290 288 285 284 283 281 281 287 290 290 287 278 275 275 279 279 280 275 264 261 261 265 272 283 295 306
212 219 234 234 235 234 243 248 250 248 247 250 268 269 259 265 273 277 286 294 290 285 283 280 282 287 293 292 285 278 270 269 272 271 269 264 260 258 262 264 272 282 295 305
230 225 232 235 242 238 240 241 240 246 254 259 262 273 273 268 269 278 298 299 294 289 285 281 284 290 296 296 288 275 265 265 267 264 263 260 260 258 260 266 273 283 294 305
216 229 234 251 250 248 245 244 245 250 258 253 255 269 274 276 282 284 296 299 297 294 288 284 288 291 292 291 288 273 267 266 266 263 262 260 258 258 260 265 272 282 293 300
204 214 216 223 234 231 241 244 240 243 255 259 258 270 274 279 288 293 299 299 301 298 298 291 289 292 291 287 283 276 273 269 266 263 260 258 257 259 260 266 272 280 288 295
216 233 238 247 249 250 250 247 238 235 242 245 262 262 271 279 285 288 295 299 301 300 298 295 293 292 288 284 282 281 279 271 263 260 257 256 256 259 261 266 272 278 285 291
228 244 266 265 259 247 254 246 242 244 249 258 266 275 279 280 282 292 298 305 305 306 305 304 302 297 291 286 284 286 285 274 260 256 255 255 255 258 261 266 272 278 282 287
223 238 270 263 280 286 275 251 234 243 252 254 257 268 279 283 287 293 302 310 310 311 310 309 304 298 292 288 286 286 285 275 260 255 255 254 256 259 262 267 272 276 280 285
236 244 251 266 286 260 254 268 254 244 257 256 267 268 274 279 288 297 299 297 306 309 310 309 306 300 293 287 284 283 279 272 261 258 257 256 257 260 264 268 271 275 278 282
250 240 259 260 259 276 267 261 241 243 267 261 263 269 267 289 297 303 300 298 303 304 304 305 306 301 296 292 287 281 275 270 264 261 260 260 259 262 265 268 271 275 277 280
249 247 246 264 264 261 258 261 262 269 275 269 260 274 288 295 293 294 297 300 304 304 303 304 304 301 299 294 290 280 273 267 265 264 262 263 263 264 267 269 272 275 277 279
247 254 247 253 266 271 263 267 263 263 264 274 279 286 290 288 288 293 297 298 301 302 302 302 301 298 297 295 291 282 274 268 266 267 264 265 265 267 270 272 274 275 277 279
244 242 252 251 258 269 259 259 268 270 279 282 288 289 289 289 292 295 297 297 299 301 303 302 300 297 296 294 291 286 278 272 267 266 267 268 269 270 272 273 275 276 277 279
257 252 258 251 258 262 262 264 276 277 278 284 289 293 293 293 295 298 299 301 301 301 302 303 301 299 296 293 289 286 281 275 269 269 270 271 273 273 274 275 275 276 277 278
262 256 263 268 271 262 269 277 273 280 283 286 288 290 292 292 295 297 299 301 302 303 303 303 302 299 297 294 289 285 281 276 273 272 274 275 276 276 275 276 276 277 277 278
261 260 263 268 272 274 272 277 280 283 284 286 289 290 291 292 294 296 298 300 301 302 303 302 301 299 297 295 292 289 282 279 276 275 275 277 277 277 277 277 277 278 277 277
262 261 262 267 269 270 273 277 282 285 285 287 288 289 291 291 293 296 298 300 300 301 302 301 300 299 298 296 292 288 285 282 280 278 277 277 278 278 278 278 279 278 278 279